Flag for Canada Weather past 2 weeks in MD of Lunenburg, Nova Scotia, Canada

55 °F

Partly sunny.

Feels Like: 53 °F
Forecast: 39 / 56 °F
Wind: 9 mph from Southwest

Location: Shearwater

Current Time: Oct 9, 2015 at 3:16:30 PM

Latest Report: Oct 9, 2015 at 2:00 PM

Visibility: 15 mi

Pressure: 30.03 "Hg

Humidity: 55%

Dew point: 39 °F

Location of MD of LunenburgLocation

Historic Weather in MD of Lunenburg — Graph


MD of Lunenburg temperature yesterday

Maximum temperature yesterday: 59 °F (at 3:00 PM)
Minimum temperature yesterday: 46 °F (at 11:00 PM)
Average temperature yesterday: 53 °F

Past Weeks' High & Low Weather Summary

High75 °F (Sep 29, 2:00 PM)100% (Sep 25, 7:00 AM)30.45 "Hg (Sep 25, 7:00 AM)
Low39 °F (Oct 9, 8:00 AM)39% (Sep 26, 2:00 PM)29.77 "Hg (Oct 7, 5:00 PM)
Average59 °F77%30.12 "Hg
* Reported Sep 24 2:00 PM — Oct 9 2:00 PM, MD of Lunenburg, Weather by CustomWeather, © 2015

Note: Actual official high and low records may vary slightly from our data, if they occured in-between our weather recording intervals... More about our weather records


MD of Lunenburg weather history for previous 24 hours

Time TempWeatherWind HumidityBarometerVisibility
2:00 PM
Fri, Oct 9
55 °FPartly sunny.9 mph55%30.03 "Hg15 mi
1:00 PM57 °FPartly sunny.8 mph48%30.05 "Hg15 mi
12:00 PM57 °FPartly sunny.6 mph48%30.08 "Hg15 mi
11:00 AM55 °FScattered clouds.5 mph51%30.11 "Hg15 mi
10:00 AM52 °FScattered clouds.8 mph58%30.11 "Hg15 mi
9:00 AM48 °FScattered clouds.2 mph82%30.11 "Hg15 mi
8:00 AM39 °FPassing clouds.2 mph100%30.10 "Hg15 mi
7:00 AM41 °FPassing clouds.No wind93%30.09 "Hg15 mi
6:00 AM41 °FPassing clouds.2 mph93%30.09 "Hg12 mi
12:00 AM46 °FClear.8 mph76%30.10 "Hg15 mi
11:00 PM
Thu, Oct 8
46 °FClear.8 mph76%30.10 "Hg15 mi
10:00 PM48 °FClear.6 mph71%30.09 "Hg15 mi
9:00 PM50 °FPassing clouds.8 mph62%30.08 "Hg15 mi
8:00 PM50 °FPassing clouds.8 mph62%30.07 "Hg15 mi
7:00 PM52 °FPartly sunny.7 mph58%30.05 "Hg15 mi
6:00 PM54 °FPartly sunny.12 mph58%30.02 "Hg15 mi
5:00 PM57 °FScattered clouds.9 mph48%30.00 "Hg15 mi
4:00 PM57 °FPassing clouds.16 mph44%29.99 "Hg15 mi
3:00 PM59 °FPassing clouds.13 mph48%29.97 "Hg15 mi
Weather by CustomWeather, © 2015

See weather overviewHow to use our weather pages